{"data":{"norad_id":58503,"epoch":"2026-05-25T02:46:13.393056Z","epoch_age_seconds":55174,"freshness":"FRESH","line1":"1 58503U 23189B   26145.11543279  .00423620  78570-4  84723-3 0  9999","line2":"2 58503  97.3850 183.8764 0006998 220.3247 139.7513 15.99755667139118","mean_motion":15.99755667,"eccentricity":0.0006998,"inclination_deg":97.385,"raan_deg":183.8764,"arg_perigee_deg":220.3247,"mean_anomaly_deg":139.7513,"bstar":0.00084723,"rev_number":13911,"period_min":90.01374583035,"perigee_km":270.44012124001,"apogee_km":279.75198622202,"semimajor_km":6653.233053731,"source":"CELESTRAK","updated_at":"2026-05-25T13:38:00.795189Z"}}